GW6414 Weather Reports


time (UTC)temp
C
wind
direction
speed
KPH
gust
KPH
rain 1hr
cm
rain 24hr
cm
rain mn
cm
humidity
%
barometer
mb
20260506135526 12 11 1.6 4.8 0.00 0.00 0.00 79 1014.1
20260506134526 12 329 0.0 3.2 0.00 0.00 0.00 79 1013.9
20260506133547 12 71 1.6 3.2 0.00 0.00 0.00 79 1013.5
20260506132547 12 337 1.6 4.8 0.00 0.00 0.00 79 1013.6
20260506131527 12 315 1.6 4.8 0.00 0.00 0.00 79 1013.3
20260506130527 12 351 1.6 3.2 0.00 0.00 0.00 78 1013.2
20260506125547 13 342 1.6 8.0 0.00 0.00 0.00 78 1013.1
20260506124527 13 34 1.6 4.8 0.00 0.00 0.00 77 1013.0
20260506123527 13 327 1.6 4.8 0.00 0.00 0.00 77 1013.0
20260506122530 13 353 1.6 4.8 0.00 0.00 0.00 76 1012.8
20260506121603 13 314 3.2 9.7 0.00 0.00 0.00 75 1012.8
20260506120527 13 360 0.0 3.2 0.00 0.00 0.00 75 1012.7
20260506115528 13 342 1.6 6.4 0.00 0.00 0.00 75 1012.6
20260506114528 13 348 1.6 4.8 0.00 0.00 0.00 74 1012.4
20260506113528 13 355 1.6 4.8 0.00 0.00 0.00 74 1012.2
20260506112529 13 354 1.6 4.8 0.00 0.00 0.00 73 1011.8
20260506111528 14 354 1.6 6.4 0.00 0.00 0.00 73 1012.0
20260506110520 14 338 1.6 8.0 0.00 0.00 0.00 73 1011.7
20260506105529 14 335 1.6 6.4 0.00 0.00 0.00 72 1011.6
20260506104520 14 342 3.2 9.7 0.00 0.00 0.00 72 1011.4
20260506103519 14 337 1.6 9.7 0.00 0.00 0.00 72 1011.3
20260506102529 15 304 3.2 4.8 0.00 0.00 0.00 72 1011.0
20260506101529 15 322 1.6 6.4 0.00 0.00 0.00 73 1010.9
20260506100529 15 323 1.6 3.2 0.00 0.00 0.00 73 1010.7
20260506095550 15 329 1.6 4.8 0.00 0.00 0.00 73 1010.6
20260506094529 15 320 3.2 6.4 0.00 0.00 0.00 73 1010.6
20260506093530 15 335 1.6 8.0 0.00 0.00 0.00 73 1010.4
20260506092530 15 342 1.6 4.8 0.00 0.00 0.00 74 1010.4
20260506091530 15 319 1.6 4.8 0.00 0.00 0.00 73 1010.3
20260506090530 15 8 0.0 3.2 0.00 0.00 0.00 73 1010.3
20260506085530 15 359 0.0 3.2 0.00 0.00 0.00 72 1010.2
20260506084551 15 301 0.0 3.2 0.00 0.00 0.00 72 1010.1
20260506083551 15 316 1.6 4.8 0.00 0.00 0.00 73 1010.0
20260506082516 15 347 1.6 3.2 0.00 0.00 0.00 74 1010.0
20260506081516 15 344 0.0 3.2 0.00 0.00 0.00 74 1010.0
20260506080556 15 355 0.0 3.2 0.00 0.00 0.00 74 1009.8
20260506073517 16 53 0.0 3.2 0.00 0.00 0.00 74 1009.5
20260506072517 16 5 1.6 3.2 0.00 0.00 0.00 74 1009.7
20260506071517 16 355 0.0 3.2 0.00 0.00 0.00 74 1009.6
20260506070517 16 357 0.0 3.2 0.00 0.00 0.00 74 1009.8
20260506061518 16 10 1.6 3.2 0.00 0.00 0.00 75 1009.6
20260506060518 17 348 1.6 3.2 0.00 0.00 0.00 75 1009.6
20260506050519 17 348 0.0 3.2 0.00 0.00 0.00 75 1009.6
20260506044520 18 339 1.6 3.2 0.00 0.00 0.00 75 1009.5
20260506043539 18 331 1.6 6.4 0.00 0.00 0.00 75 1009.6
20260506042600 18 313 3.2 6.4 0.00 0.00 0.00 74 1009.5
20260506041540 18 349 0.0 3.2 0.00 0.00 0.00 74 1009.4
20260506040520 18 316 1.6 4.8 0.00 0.00 0.00 73 1009.2
20260506035520 19 1 1.6 4.8 0.00 0.00 0.00 73 1008.8
20260506034518 19 351 1.6 3.2 0.00 0.00 0.00 73 1008.7
20260506033518 20 329 1.6 6.4 0.00 0.00 0.00 72 1008.6
20260506032516 20 341 1.6 6.4 0.00 0.00 0.00 72 1008.5
20260506031518 21 327 1.6 6.4 0.00 0.00 0.00 72 1008.4
20260506030515 21 10 1.6 4.8 0.00 0.00 0.00 72 1008.1
20260506025516 21 10 1.6 8.0 0.00 0.00 0.00 71 1008.1
20260506024516 21 322 1.6 6.4 0.00 0.00 0.00 71 1007.9
20260506023516 21 313 1.6 8.0 0.00 0.00 0.00 70 1007.6
20260506022516 21 314 1.6 6.4 0.00 0.00 0.00 70 1007.2
20260506021517 21 304 1.6 9.7 0.00 0.00 0.00 69 1007.0
20260506020557 22 312 4.8 11.3 0.00 0.00 0.00 69 1006.7
20260506015517 22 323 1.6 4.8 0.00 0.00 0.00 69 1006.3
20260506014517 22 313 1.6 6.4 0.00 0.00 0.00 68 1006.4
20260506013517 22 313 1.6 8.0 0.00 0.00 0.00 68 1006.3
20260506012517 22 314 3.2 9.7 0.00 0.00 0.00 67 1006.0
20260506011518 23 317 1.6 6.4 0.00 0.00 0.00 66 1006.1
20260506010521 23 325 1.6 6.4 0.00 0.00 0.00 66 1006.2
20260506005518 23 347 1.6 4.8 0.00 0.00 0.00 65 1006.0
20260506004518 24 345 1.6 3.2 0.00 0.00 0.00 64 1005.5
20260506003538 25 356 1.6 3.2 0.00 0.00 0.00 63 1005.4
20260506002516 25 336 1.6 8.0 0.00 0.00 0.00 62 1005.2
20260506001516 26 331 1.6 8.0 0.00 0.00 0.00 62 1005.0
20260506000516 27 328 3.2 11.3 0.00 0.00 0.00 60 1004.9
20260505235516 27 315 1.6 12.9 0.00 0.00 0.00 60 1004.6
20260505234516 28 357 1.6 6.4 0.00 0.00 0.00 58 1004.5
20260505233517 28 312 3.2 14.5 0.00 0.00 0.00 57 1004.4
20260505232517 29 314 3.2 11.3 0.00 0.00 0.00 54 1004.5
20260505231517 30 311 6.4 14.5 0.00 0.00 0.00 53 1004.2
20260505230537 30 310 4.8 14.5 0.00 0.00 0.00 50 1004.1
20260505225518 30 310 4.8 14.5 0.00 0.00 0.00 48 1003.8
20260505224517 30 307 4.8 14.5 0.00 0.00 0.00 47 1003.7
20260505223518 31 313 3.2 16.1 0.00 0.00 0.00 47 1003.8
20260505222538 32 307 3.2 14.5 0.00 0.00 0.00 46 1003.4
20260505221518 33 311 4.8 12.9 0.00 0.00 0.00 47 1003.1
20260505220518 33 319 1.6 8.0 0.00 0.00 0.00 46 1003.1
20260505215518 33 321 3.2 9.7 0.00 0.00 0.00 46 1003.3
20260505214518 33 341 1.6 6.4 0.00 0.00 0.00 46 1003.3
20260505213515 33 344 1.6 4.8 0.00 0.00 0.00 46 1003.3
20260505212516 33 345 1.6 6.4 0.00 0.00 0.00 48 1003.5
20260505211516 33 352 1.6 9.7 0.00 0.00 0.00 47 1003.6
20260505210516 33 346 1.6 4.8 0.00 0.00 0.00 48 1003.7
20260505205518 33 98 1.6 11.3 0.00 0.00 0.00 49 1003.7
20260505204516 33 113 1.6 8.0 0.00 0.00 0.00 51 1003.9
20260505203516 33 323 3.2 8.0 0.00 0.00 0.00 50 1004.0
20260505202516 33 330 1.6 6.4 0.00 0.00 0.00 52 1004.3
20260505201516 32 317 3.2 11.3 0.00 0.00 0.00 52 1004.2
20260505200517 33 99 1.6 14.5 0.00 0.00 0.00 52 1004.3
20260505195517 32 81 1.6 4.8 0.00 0.00 0.00 54 1004.4
20260505194517 32 107 3.2 8.0 0.00 0.00 0.00 53 1004.5
20260505193517 32 114 3.2 14.5 0.00 0.00 0.00 55 1004.5
20260505192517 32 91 3.2 6.4 0.00 0.00 0.00 54 1004.5
20260505191517 32 116 3.2 9.7 0.00 0.00 0.00 55 1004.5
20260505190518 31 8 1.6 6.4 0.00 0.00 0.00 57 1004.5
20260505185518 30 50 1.6 9.7 0.00 0.00 0.00 59 1004.6
20260505184518 30 122 3.2 11.3 0.00 0.00 0.00 60 1004.7
20260505183518 30 339 1.6 8.0 0.00 0.00 0.00 59 1004.8
20260505182515 30 62 1.6 4.8 0.00 0.00 0.00 60 1004.8
20260505181516 30 348 1.6 8.0 0.00 0.00 0.00 60 1004.9
20260505180516 30 113 3.2 8.0 0.00 0.00 0.00 60 1004.8
20260505175516 30 100 3.2 9.7 0.00 0.00 0.00 60 1004.8
20260505174516 30 50 1.6 6.4 0.00 0.00 0.00 60 1004.7
20260505173517 30 114 3.2 11.3 0.00 0.00 0.00 61 1004.8
20260505172516 30 21 3.2 9.7 0.00 0.00 0.00 62 1004.9
20260505171517 29 65 1.6 9.7 0.00 0.00 0.00 64 1004.9
20260505170517 28 93 1.6 6.4 0.00 0.00 0.00 65 1004.9
20260505165517 28 115 3.2 11.3 0.00 0.00 0.00 65 1004.9
20260505164517 28 44 1.6 4.8 0.00 0.00 0.00 65 1005.0
20260505163517 28 126 3.2 12.9 0.00 0.00 0.00 67 1004.9
20260505162518 28 125 3.2 9.7 0.00 0.00 0.00 65 1004.9
20260505161537 27 141 6.4 12.9 0.00 0.00 0.00 68 1004.9
20260505160518 27 70 1.6 8.0 0.00 0.00 0.00 69 1004.8
20260505152519 26 78 3.2 6.4 0.00 0.00 0.00 73 1004.6
20260505151516 25 110 3.2 9.7 0.00 0.00 0.00 75 1004.8
20260505150519 25 136 1.6 8.0 0.00 0.00 0.00 77 1004.8
20260505140517 23 116 3.2 9.7 0.00 0.00 0.00 82 1004.4